DECAYED

RESURS P1 DEB, 60220 (Decayed)

Orbit data source: Space-Track

RESURS P1 DEB, 60220 was space debris in LEO originally from a Commonwealth of Independent States-origin launch on Tue, 25 Jun 2013 UTC launched from the Tyuratam Missile And Space Complex (TTMTR). Debris objects in space refer to the collection of defunct objects orbiting the Earth. Examples of debris include non-operational satellites, rocket bodies, and fragments generated from explosions, collisions, or faulty payload assembly.

Not visible in the next 10 days
RESURS P1 DEB details
Identifier
60220, 2013-030J
Orbit
Decayed
Last TLE update5 months ago
Origin
Flag of CISTSSKBP? (CIS)
ManufacturerTSSKBP?
MissionDecayed spacecraft
Bus & MotorUnknown
MassUnknown
Launch date (UTC)
2013-06-25 (11 years ago)
Launch vehicleUnknown
Launch site
Tyuratam Missile And Space Complex (TTMTR)
Object type
Payload
Rocket body
Debris
Shape & HBRUnknown
Radar Cross SectionSmall (<0.1 m²)

Expand to show TLE details & history

TLE from 5 months ago
0 RESURS P1 DEB
1 60220U 13030J   24209.57598156  .16467769  22127-5  22649-2 0  9990
2 60220  96.8745 259.3178 0020829 274.9624  84.9296 16.34480138  4809
Epoch: 2024-07-27T13:49Z
Definitive object data (Epoch: 2024-07-27T13:49:24.806Z)
Latitude-0.00005°
Longitude106.22945°
Altitude182.607 km
Speed7.797 km/s
True Right ascension17h 17m 16s
True Declination0° 00' 00"
Sunlit
Object was in full shadow at TLE epoch
Visualization observer readout
Observer readout values are unavailable because the object's trajectory could not be propagated. This is usually caused when the trajectory data is faulty or the object's orbit has decayed.
Visualization observer readout
Observer readout values are unavailable because the object's trajectory could not be propagated. This is usually caused when the trajectory data is faulty or the object's orbit has decayed.
Orbital elements
Apogee altitude190.974 km
Perigee altitude163.665 km
Semi-major axis6,555.456 km
Eccentricity0.0020829
Inclination96.8745°
RAAN259.3178°
Arg. of periapsis274.9624°
True anomaly85.1674°
Mean anomaly84.9296°
Eccentric anomaly85.0485°
Mean motion4.0892 °/min
BSTAR0.0022649
Orbital period88.04 mins
Loading maneuver chart data...

RESURS P1 DEB Visibility forecast

Observer location: undefined°, undefined

This satellite is decayed
Span
Click to sort rows by Start time (UTC) header in descending order
Start Az.
Max El. time (UTC)
Max El. Az.
Max El.
End time (UTC)
End Az.
|